Weather in Ukholovo

Russia / Ryazan Oblast     53°47′34″N   40°29′18″E
temp.,
°C
wind,
m/s
gust,
m/s
humid.,
%
clouds,
%
prec.,
mm/h
press.,
hPa
HPBL,
m
2 july, sat
sat200:00+8nnw410800 0.0 1020198
03:00+8n512800 0.0 1020270
06:00+11n614804 0.0 1019417
09:00+17n8126326 0.0 1020920
12:00+20n810500 0.0 10191718
15:00+22nne710440 0.0 10182101
18:00+21nne36580 0.0 1017497
21:00+16nnw337416 0.0 101724
3 july, sun
sun300:00+15n3374100 0.0 101645
03:00+15nnw347418 0.0 101673
06:00+15nw3583100 0.1 1015118
09:00+20nnw23667 0.1 1015459
12:00+23ne335714 0.0 10141304
15:00+25nne455264 0.4 10142060
18:00+24nne135318 0.0 10141289
21:00+20nnw236349 0.0 101535
4 july, mon
mon400:00+17ene33730 0.0 101637
03:00+15ene22860 0.0 101616
06:00+17ene23823 0.0 101785
09:00+22nne23665 0.0 1017645
12:00+24nne34535 0.0 10171665
15:00+26n344744 0.0 10172185
18:00+25nnw12490 0.0 10161210
21:00+21w2262100 0.0 101720
5 july, tue
tue500:00+19w346911 0.0 101747
03:00+17wnw237682 0.0 101825
06:00+20w127451 0.0 101859
09:00+24w236316 0.0 1018431
12:00+26w335669 0.0 10181028
15:00+28ssw124854 0.0 10171924
18:00+21se348060 1.1 101873
21:00+20wsw338085 1.5 101738
6 july, wed
wed600:00+19sw338614 1.2 101849
03:00+19wsw348861 1.3 101872
06:00+19sw24885 0.0 1018136
09:00+24wsw34704 0.0 1017465
12:00+28wsw45565 0.0 10171383
15:00+28wsw5550100 0.0 10161792
18:00+27wsw3663100 0.0 1016375
21:00+22sw34745 0.0 101646